Preview of NWS' New Version of Forecast
This preview is not operational and should not be used for support decisions.
Latest weather observations around

Leadville, Lake County Airport (KLXV)

Using English Units (Switch to International System of Units)
Date/ Time (MDT) Wind (mph) Vis. (mi) Weather Sky Cond. Temp (°F) Rel. Humidity Wind Chill (°F) Heat Index (°F) Pressure Precip. (in)
Air Dwpt 6 hour Altimeter (inHg) Sea level (inHg) 1 hr 3 hr 6 hr
Max Min
Jun 26 15:53 W 14 10 Clear CLR 68 16     13%       29.93      
Jun 26 14:53 SSW 11 10 Clear CLR 67 14     13%     30.39 29.94      
Jun 26 13:53 WSW 14 10 Clear CLR 64 16     15%       29.96      
Jun 26 13:06 SW 14 10 Mostly Clear FEW100 66 14     13%     30.4        
Jun 26 12:53 SW 16 10 Partly Cloudy SCT100 66 18     16%     30.39 29.94      
Jun 26 11:53 S 15 10 Clear CLR 62 19     19%       29.97      
Jun 26 10:53 S 14 10 Clear CLR 60 22     23%       29.95      
Jun 26 09:53 SSW 6 10 Clear CLR 56 31     38%     30.41 29.93      
Jun 26 08:53 S 3 10 Clear CLR 53 27     36%       29.94      
Jun 26 07:53 Calm 10 Clear CLR 48 30     50%       29.93      
Jun 26 06:53 NE 3 10 Clear CLR 38 28     67% 36     29.98      
Jun 26 05:53 ENE 5 10 Clear CLR 32 25     75% 27     29.99      
Jun 26 04:53 Calm 10 Clear CLR 33 26     75%       29.97      
Jun 26 03:53 Calm 10 Clear CLR 34 26     72%       29.96      
Jun 26 02:53 NNE 5 10 Clear CLR 35 26     69% 31     29.96      
Jun 26 01:53 Calm 10 Clear CLR 35 26     69%       29.96      
Jun 26 00:53 Calm 10 Clear CLR 35 26     69%       29.96      
Jun 25 23:53 E 5 10 Clear CLR 37 26     64% 33   30.4 29.98      
Jun 25 22:53 Calm 10 Clear CLR 43 28     55%       29.95      
Jun 25 21:53 SSE 7 10 Clear CLR 50 26     39%       29.92      
Jun 25 20:53 SE 6 10 Clear CLR 52 26     36%     30.37 29.91      
Jun 25 19:53 SSE 13 10 Clear CLR 57 26     30%       29.91      
Jun 25 18:53 SSE 14 10 Mostly Cloudy BKN110 60 27     28%     30.35 29.92      
Jun 25 18:03 SSW 20 10 Partly Cloudy and Windy SCT100 61 26     26%     30.34        
Jun 25 17:53   10 Partly Cloudy SCT100 64 25     23%     30.33 29.93      
Jun 25 16:53 SW 11 10 Clear CLR 64 17     16%     30.33 29.93      
Jun 25 15:53 W 11 10 Clear CLR 64 19     18%       29.93      
Jun 25 14:53 W 16 10 Clear CLR 62 22     21%       29.92      
Jun 25 13:53 W 14 10 Mostly Clear FEW110 64 21     19%     30.36 29.89      
Jun 25 12:53 W 9 10 Mostly Clear FEW100 64 21     19%       29.91      
Jun 25 11:53 W 14 10 Partly Cloudy SCT095 61 21     21%       29.91      
Jun 25 10:53 S 10 10 Clear CLR 60 22     23%       29.9      
Jun 25 09:53 S 8 10 Clear CLR 56 28     34%       29.93      
Jun 25 08:53 S 3 10 Clear CLR 51 30     44%     30.35 29.91      
Jun 25 07:53 Calm 10 Clear CLR 45 29     53%     30.35 29.91      
Jun 25 06:53 NE 3 10 Clear CLR 37 28     70% 35   30.34 29.95      
Jun 25 05:53 ENE 7 10 Clear CLR 30 26     85% 23   30.32 29.96      
Jun 25 04:53 Calm 10 Clear CLR 29 25     85%     30.32 29.96      
Jun 25 03:53 ENE 7 10 Clear CLR 32 27     81% 26   30.3 29.91      
Jun 25 02:53 E 7 10 Clear CLR 37 29     72% 32   30.3 29.87      
Jun 25 01:53 ENE 8 10 Clear CLR 39 29     67% 33   30.31 29.89      
Jun 25 00:53 N 10 10 Mostly Cloudy BKN080 37 28     70% 30   30.34 29.94      
Jun 24 23:53 E 7 10 Clear CLR 39 26     59% 34   30.3 29.89      
Jun 24 22:53 E 7 10 Clear CLR 42 27     55% 38   30.3 29.9      
Jun 24 21:53 E 8 10 Clear CLR 42 27     55% 37   30.29 29.89      
Jun 24 20:53 Calm 10 Clear CLR 49 27     42%     30.28 29.85      
Jun 24 19:53 W 7 10 Mostly Clear FEW095 55 24     30%     30.27 29.82      
Jun 24 18:53 W 7 10 Mostly Cloudy SCT075 BKN090 55 25     31%     30.27 29.86      
Jun 24 17:53 W 10 10 Mostly Clear FEW075 57 25     29%     30.26 29.85      
Jun 24 16:53 W 14 7 Mostly Clear FEW080 59 25     27%     30.26 29.84      
Jun 24 15:53 WNW 15 10 Mostly Clear FEW070 FEW090 59 26     28%     30.26 29.85      
Jun 24 14:53 NNW 9 10 Partly Cloudy FEW070 SCT080 60 27     28%     30.27 29.84      
Jun 24 13:53 W 13 10 Clear CLR 57 25     29%     30.28 29.88      
Jun 24 12:53 WNW 15 10 Mostly Clear FEW065 57 26     30%     30.28 29.91      
Jun 24 11:53 WNW 17 10 Mostly Clear FEW060 55 25     31%     30.29 29.88      
Jun 24 10:53 N 13 10 Partly Cloudy SCT060 52 26     36%     30.29 29.9      
Jun 24 09:53 NNW 11 10 Clear CLR 51 27     39%     30.3 29.92      
Jun 24 08:53 NW 11 10 Clear CLR 48 26     42% 43   30.3 29.93      
Jun 24 07:53 6 10 Clear CLR 46 27     47% 43   30.3 29.93      
Jun 24 06:53 NNE 5 10 Clear CLR 39 27     62% 36   30.29 29.96      
Jun 24 04:53 NNW 7 10 Clear CLR 37 26     64% 32   30.27 29.95      
Jun 24 03:53 NNW 8 10 Clear CLR 37 26     64% 31   30.28 29.94      
Jun 24 02:53 NW 8 10 Partly Cloudy SCT065 38 28     67% 32   30.29 29.97      
Jun 24 01:53 NNE 5 10 Cloudy OVC070 35 28     75% 31   30.29 29.98      
Jun 24 00:53 NE 6 10 Clear CLR 33 27     78% 28   30.29 30.01      
Jun 23 23:53 Calm 10 Clear CLR 38 27     64%     30.3 29.99      
Jun 23 22:53 5 10 Clear CLR 39 27     62% 36   30.3 30.02      
Jun 23 21:53 NNW 8 10 Clear CLR 39 28     64% 33   30.3 30.03      
Jun 23 20:53 N 8 10 Clear CLR 40 28     62% 34   30.29 30.03      
Jun 23 19:53 NNW 9 10 Cloudy BKN055 OVC070 42 27     55% 37   30.28 30.02      
Jun 23 18:53 NW 13 10 Partly Cloudy SCT070 45 27     49% 39   30.25 29.97      
Jun 23 17:53 NW 18 10 Clear CLR 47 25     42% 40   30.25 29.96     0
Jun 23 16:53 NW 16 10 Mostly Clear FEW050 44 28     53% 37   30.25 29.98      
Jun 23 15:53 NW 20 10 Mostly Clear and Windy FEW039 46 27     47% 38   30.25 29.96      
Jun 23 14:53 WNW 17 10 Partly Cloudy FEW036 SCT048 44 28     53% 36   30.24 29.98 0 0  
Jun 23 13:53 NW 20 10 Mostly Cloudy and Windy SCT036 SCT047 BKN055 45 29     53% 37   30.25 29.96      
May 15 03:53 Calm 10 Clear CLR 29 18     63%     30.29 29.94      
May 14 20:53 ENE 5 10 Clear CLR 42 13     30% 39   30.23 29.89      
May 14 16:53 W 15 10 Clear CLR 57 6     13%     30.16 29.8      
May 14 03:53 SW 3 10 Clear   30 18     60% 27   30.19 29.81      
May 12 21:53 SSE 6 10 Clear CLR 51        %     30.13 29.65      
May 12 09:53 S 11 10 Mostly Clear FEW085 53 18     25%     30.09 29.64      
May 12 06:53 Calm 10 Clear CLR 39 17     41%     30.09 29.66      
May 12 01:53 SSE 9 10 Clear CLR 49 13     23% 45   30.02 29.5      
May 12 00:53 SSE 7 10 Clear CLR 49 14     24% 46   30.03 29.52      
May 11 15:53 WSW 16 10 Clear CLR 58 16     19%     29.94 29.49      
May 11 10:53 SW 16 10 Mostly Clear FEW095 55 14     19%     30.01 29.5      
May 11 06:53 3 10 Clear CLR 40 21     46% 38   30.01 29.54      
Jun 11 21:53 Calm 10 Clear   55        %     30.17 29.63      
Jun 11 16:53 SSW 14 10 Clear CLR 70        %     30.13 29.57      
Jun 10 17:53 SSW 15 10 Clear CLR 70 10     10%     30.08 29.53      
Jun 10 05:53 NNE 3 10 Clear CLR 46 20     35% 45   30.14 29.59      
Jun 08 14:53 WNW 17 10 Mostly Cloudy FEW090 BKN110 68 22     17%     30.34 29.86      
Jun 08 12:53 NNW 15 10 Clear CLR 68 18     15%     30.36 29.87      
Jun 07 18:53 5 10 Mostly Clear FEW120 58 28     32%       29.97      
Jun 07 14:53   10 Mostly Clear FEW110 64 27     24%       29.98 0 0  
Jun 07 08:53 Calm 10 Mostly Clear FEW100 50 39     66%     30.47 30.07      
Notice The following observation data may not be complete
Jun 06 13:36   8 Thunderstorms and Rain BKN075 BKN100          %         0    
Notice The following observation data may not be complete
Jun 06 11:53 E 8 10 Cloudy FEW065 BKN095 OVC110   38      %     30.46 30.07 0   0
Jun 06 03:53 ENE 6 10 Partly Cloudy SCT120 40 36     86% 36   30.45 29.97      
Jun 06 01:53 NE 8 10 Clear CLR 40 36     86% 34   30.45 30.04      
Jun 05 22:53 S 5 10 Mostly Cloudy BKN120 47 39     74% 45   30.45 29.94      
Jun 05 13:13   10 Mostly Cloudy FEW080 BKN120 57 32     39%     30.4